TimeCDT,TemperatureF,Dew PointF,Humidity,Sea Level PressureIn,VisibilityMPH,Wind Direction,Wind SpeedMPH,Gust SpeedMPH,PrecipitationIn,Events,Conditions,WindDirDegrees,DateUTC
12:54 AM,34.0,28.9,82,29.73,8.0,NW,18.4,-,N/A,,Overcast,310,2013-04-12 05:54:00
1:25 AM,33.8,28.4,81,29.72,8.0,NW,19.6,24.2,N/A,,Overcast,310,2013-04-12 06:25:00
1:54 AM,34.0,28.9,82,29.74,8.0,NW,17.3,-,N/A,,Overcast,310,2013-04-12 06:54:00
2:54 AM,34.0,30.0,85,29.75,9.0,WNW,15.0,-,N/A,,Overcast,300,2013-04-12 07:54:00
3:54 AM,34.0,30.0,85,29.75,10.0,NW,17.3,-,N/A,,Overcast,310,2013-04-12 08:54:00
4:37 AM,33.8,30.2,87,29.74,9.0,NW,17.3,-,N/A,,Overcast,320,2013-04-12 09:37:00
4:54 AM,34.0,30.0,85,29.76,8.0,NW,16.1,-,N/A,,Overcast,320,2013-04-12 09:54:00
5:54 AM,34.0,30.0,85,29.77,8.0,NW,12.7,-,N/A,,Overcast,320,2013-04-12 10:54:00
6:27 AM,33.8,30.2,87,29.76,8.0,NW,15.0,-,N/A,,Overcast,320,2013-04-12 11:27:00
6:54 AM,34.0,30.0,85,29.80,8.0,NW,11.5,-,N/A,,Overcast,320,2013-04-12 11:54:00
7:54 AM,34.0,28.9,82,29.83,8.0,NW,19.6,-,N/A,,Overcast,310,2013-04-12 12:54:00
8:13 AM,33.8,28.4,81,29.82,8.0,WNW,19.6,-,N/A,,Overcast,300,2013-04-12 13:13:00
8:54 AM,34.0,28.9,82,29.86,9.0,NW,18.4,-,N/A,,Overcast,310,2013-04-12 13:54:00
9:54 AM,35.1,28.9,78,29.88,10.0,NW,23.0,26.5,N/A,,Overcast,310,2013-04-12 14:54:00
10:54 AM,36.0,28.9,76,29.89,10.0,NW,16.1,-,N/A,,Overcast,310,2013-04-12 15:54:00
11:54 AM,37.0,28.9,73,29.90,10.0,WNW,19.6,-,N/A,,Overcast,290,2013-04-12 16:54:00
12:54 PM,37.0,28.9,73,29.91,10.0,WNW,18.4,25.3,N/A,,Overcast,300,2013-04-12 17:54:00
1:54 PM,37.9,28.0,68,29.92,10.0,WNW,17.3,-,N/A,,Overcast,290,2013-04-12 18:54:00
2:03 PM,39.2,28.4,65,29.91,10.0,WNW,18.4,-,N/A,,Overcast,290,2013-04-12 19:03:00
2:54 PM,39.0,28.0,65,29.94,10.0,WNW,20.7,25.3,N/A,,Overcast,290,2013-04-12 19:54:00
3:54 PM,39.0,28.0,65,29.94,10.0,WNW,19.6,-,N/A,,Overcast,300,2013-04-12 20:54:00
4:54 PM,39.0,28.0,65,29.95,10.0,WNW,16.1,23.0,N/A,,Overcast,300,2013-04-12 21:54:00
5:54 PM,37.9,27.0,65,29.96,10.0,NW,17.3,25.3,N/A,,Overcast,310,2013-04-12 22:54:00
6:54 PM,37.0,26.1,65,29.98,10.0,NW,19.6,-,N/A,,Overcast,320,2013-04-12 23:54:00
7:54 PM,36.0,27.0,70,29.99,10.0,NW,16.1,-,N/A,,Overcast,320,2013-04-13 00:54:00
8:04 PM,35.6,26.6,70,29.97,10.0,NNW,13.8,-,N/A,,Overcast,330,2013-04-13 01:04:00
8:54 PM,35.1,26.1,70,30.00,10.0,NNW,13.8,-,N/A,,Overcast,330,2013-04-13 01:54:00
9:54 PM,34.0,25.0,70,30.01,10.0,NW,13.8,-,N/A,,Overcast,320,2013-04-13 02:54:00
10:54 PM,34.0,25.0,70,30.02,10.0,NW,10.4,-,N/A,,Overcast,320,2013-04-13 03:54:00
11:54 PM,34.0,24.1,67,30.02,10.0,WNW,9.2,-,N/A,,Overcast,300,2013-04-13 04:54:00